TimeEDT,TemperatureF,Dew PointF,Humidity,Sea Level PressureIn,VisibilityMPH,Wind Direction,Wind SpeedMPH,Gust SpeedMPH,PrecipitationIn,Events,Conditions,WindDirDegrees,DateUTC
12:53 AM,77.0,70.0,79,29.79,5.0,Calm,Calm,-,N/A,,Haze,0,2013-09-01 04:53:00
1:53 AM,75.9,68.0,76,29.78,9.0,Calm,Calm,-,N/A,,Clear,0,2013-09-01 05:53:00
2:53 AM,75.0,66.9,76,29.78,8.0,Calm,Calm,-,N/A,,Clear,0,2013-09-01 06:53:00
3:53 AM,75.0,66.0,73,29.78,10.0,Calm,Calm,-,N/A,,Clear,0,2013-09-01 07:53:00
4:53 AM,73.9,64.9,73,29.78,9.0,Calm,Calm,-,N/A,,Clear,0,2013-09-01 08:53:00
5:53 AM,73.0,66.0,79,29.79,9.0,Calm,Calm,-,N/A,,Mostly Cloudy,0,2013-09-01 09:53:00
6:53 AM,75.0,66.0,73,29.80,9.0,Calm,Calm,-,N/A,,Overcast,0,2013-09-01 10:53:00
7:53 AM,77.0,66.0,69,29.81,10.0,Calm,Calm,-,N/A,,Overcast,0,2013-09-01 11:53:00
8:53 AM,79.0,66.9,66,29.81,10.0,Calm,Calm,-,N/A,,Clear,0,2013-09-01 12:53:00
9:53 AM,84.0,68.0,58,29.81,10.0,Calm,Calm,-,N/A,,Clear,0,2013-09-01 13:53:00
10:53 AM,86.0,69.1,57,29.81,10.0,Calm,Calm,-,N/A,,Partly Cloudy,0,2013-09-01 14:53:00
11:53 AM,86.0,69.1,57,29.81,10.0,WNW,3.5,-,N/A,,Mostly Cloudy,290,2013-09-01 15:53:00
12:42 PM,87.8,69.8,55,29.85,10.0,Calm,Calm,-,N/A,,Mostly Cloudy,0,2013-09-01 16:42:00
12:53 PM,88.0,70.0,55,29.79,10.0,Calm,Calm,-,N/A,,Mostly Cloudy,0,2013-09-01 16:53:00
1:53 PM,89.1,70.0,53,29.79,10.0,Calm,Calm,-,N/A,,Scattered Clouds,0,2013-09-01 17:53:00
2:53 PM,90.0,70.0,52,29.77,10.0,Calm,Calm,-,N/A,,Clear,0,2013-09-01 18:53:00
3:53 PM,90.0,70.0,52,29.75,10.0,Variable,3.5,-,N/A,,Scattered Clouds,0,2013-09-01 19:53:00
4:53 PM,90.0,69.1,50,29.75,10.0,Calm,Calm,-,N/A,,Partly Cloudy,0,2013-09-01 20:53:00
5:53 PM,87.1,71.1,59,29.75,10.0,Calm,Calm,-,N/A,,Scattered Clouds,0,2013-09-01 21:53:00
6:53 PM,84.0,73.9,72,29.75,9.0,Calm,Calm,-,N/A,,Partly Cloudy,0,2013-09-01 22:53:00
7:53 PM,82.9,69.1,63,29.78,9.0,West,8.1,-,N/A,,Mostly Cloudy,280,2013-09-01 23:53:00
8:53 PM,77.0,68.0,74,29.79,6.0,Calm,Calm,-,0.03,Rain,Light Rain,0,2013-09-02 00:53:00
9:53 PM,75.9,69.1,79,29.79,9.0,Calm,Calm,-,0.01,,Clear,0,2013-09-02 01:53:00
10:53 PM,75.9,69.1,79,29.79,7.0,Calm,Calm,-,N/A,,Clear,0,2013-09-02 02:53:00
11:53 PM,75.9,69.1,79,29.77,6.0,Calm,Calm,-,N/A,,Haze,0,2013-09-02 03:53:00